Regional Weather Roundup
Issued by NWS

Home | Current Version | Previous Version | Text Only | Print | Product List | Glossary On
Versions: 1 2 3 4 5 6 7 8 9 10 11 12 13 14 15 16 17 18 19 20 21 22 23 24 25 26 27 28 29 30 31 32 33 34 35 36 37 38 39 40 41 42 43 44 45 46 47 48 49 50
000
ASUS45 KSLC 281310
RWRUT

UTAH REGIONAL WEATHER ROUNDUP
NATIONAL WEATHER SERVICE SALT LAKE CITY UT
700 AM MDT FRI APR 28 2017

UTZ001>011-023>025-281400-

NORTHERN UTAH

CITY           SKY/WX    TMP DP  RH WIND       PRES   REMARKS
BRIGHAM CITY   MOCLDY    33  25  72 CALM      29.88S
HILL AFB       CLEAR     33  20  58 N7        29.86R WCI  27
LOGAN          CLOUDY    32  25  75 CALM      29.86S
OGDEN          CLOUDY    32  22  66 NW5       29.86S WCI  27
SALT LAKE CITY MOCLDY    36  33  89 E5        29.87S WCI  32
TOOELE VALLEY  FLURRIES  34  28  80 CALM      29.88S
WENDOVER       PTCLDY    37  22  54 NW21      29.90F WCI  26
HEBER CITY     CLOUDY    30  25  80 CALM      29.82R
WEST JORDAN    MOCLDY    35  35 100 SW7       29.88R WCI  29

$$

UTZ011>015-024>027-281400-

CENTRAL/NORTHEAST UTAH

CITY           SKY/WX    TMP DP  RH WIND       PRES   REMARKS
PROVO AIRPORT  LGT RAIN  34  28  79 N12       29.88R WCI  25
MOAB/CANYONLAN CLOUDY    40  20  44 W8        29.76F WCI  34
DELTA          CLEAR     30  25  80 CALM      29.89S
PRICE          CLEAR     28  16  60 NW6       29.78S WCI  22
RICHFIELD      MOCLDY    34  25  69 NE7       29.89S WCI  28
ROOSEVELT      PTCLDY    32  18  55 SW3       29.78R
VERNAL         CLEAR     28  19  69 SW3       29.76S

$$

UTZ013>016-019>022-027-281400-

SOUTHERN UTAH

CITY           SKY/WX    TMP DP  RH WIND       PRES   REMARKS
BRYCE CANYON   MOCLDY    23  19  85 NE6       29.82S WCI  16
CEDAR CITY     CLEAR     27  22  81 N7        29.85S WCI  19
MILFORD        CLOUDY    30  25  81 N3        29.87S
ST GEORGE      MOSUNNY   47  26  44 S6        29.85R
HANKSVILLE     CLOUDY    37  19  48 W5        29.83S WCI  34
KANAB          CLEAR     36  21  55 N7        29.88R WCI  30
BLANDING       MOCLDY    35  17  48 N9        29.83S WCI  28

$$

REGIONAL REPORTS     COLORADO/ARIZONA

CITY           SKY/WX    TMP DP  RH WIND       PRES   REMARKS
CRAIG, CO      CLOUDY    30  25  81 SE6       29.76S WCI  24
GRAND JUNCTION CLEAR     29  20  69 NW5       29.76R WCI  24
RIFLE, CO      CLOUDY    31  28  89 NE3       29.76S
MONTROSE, CO   PTCLDY    30  18  60 SE6       29.79S WCI  24
CORTEZ, CO     CLOUDY    36  21  54 CALM      29.78R
COLORADO CITY    N/A     41  25  52 NW9       29.85S
PAGE, AZ       PTCLDY    47  22  37 NW9       29.78R
GRAND CANYON   CLOUDY    40  19  43 NW7       29.80R
KINGMAN, AZ    PTCLDY    53  16  23 N16       29.80R
FLAGSTAFF, AZ  CLOUDY    42  11  28 VRB5      29.79R

$$

REGIONAL REPORTS    NEVADA/IDAHO/WYOMING

CITY           SKY/WX    TMP DP  RH WIND       PRES   REMARKS
LAS VEGAS, NV  PTCLDY    60  13  15 N18       29.82R
ELY, NY        MOCLDY    27  18  69 NW5       29.91F WCI  22
ELKO, NV       PTCLDY    34  20  56 NW12      29.97R WCI  25
POCATELLO, ID  CLOUDY    32  32 100 SW13      29.91R WCI  22
BURLEY, ID     LGT SNOW  32  28  85 W15       29.93S VSB 1   WCI  22
EVANSTON, WY   CLOUDY    21  17  84 SW8       29.79S WCI  11
ROCK SPRINGS,  LGT SNOW  26  21  81 SW20      29.73R WCI  12

$$



USA.gov is the U.S. government's official web portal to all federal, state and local government web resources and services.